TITAN 3C TRANSTAGE DEB, 13906

Orbit data source: Space-Track

TITAN 3C TRANSTAGE DEB, 13906 is space debris in HEO originally from a launch on Tue, 21 Dec 1965 UTC launched from the Air Force Eastern Test Range (AFETR). Debris objects in space refer to the collection of defunct objects orbiting the Earth. Examples of debris include non-operational satellites, rocket bodies, and fragments generated from explosions, collisions, or faulty payload assembly.

Loading next visibility...
Identifier
13906, 1965-108U
Orbit
HEO
Country
Flag of USUS
Related business
Manufacturer
Unknown
Mission
Spacecraft
Bus & Motor
Unknown
Mass
Unknown
Launch date (UTC)
1965-12-21 (60 years ago)
Launch vehicle
Unknown
Launch site
Air Force Eastern Test Range (AFETR)
Object type
Payload
Rocket body
Debris
Shape & HBR
Unknown shape, 0.5 m
Radar Cross Section
Medium (>0.1 m² and <1 m²)

Expand to show TLE details & history
Last TLE update: 5 days ago

TLE from 5 days ago
0 TITAN 3C TRANSTAGE DEB
1 13906U 65108U   25285.34961272 -.00000027  00000-0  66115-3 0  9997
2 13906  26.6018  11.6221 6740930  48.3931   0.9410  2.78037676336488
Epoch: 2025-10-12T08:23Z
TLE epoch observation values (Epoch: 2025-10-12T08:23:26.539Z)
Latitude
21.83865°
Longitude
-82.70878°
Altitude
601.588 km
Speed
9.777 km/s
True Right ascension
04h 17m 16s
True Declination
21° 43' 03"
Sunlit
Object was in full shadow at epoch
Visualization orbit readout
Latitude
Unknown
Longitude
Unknown
Altitude
Unknown
Speed
Unknown
Apparent Right ascension
Unknown
Apparent Declination
Unknown
Sunlit
N/A
Visualization observer readout
Local Sidereal Time
16:08:54
Azimuth
Unknown
Elevation
Unknown
Doppler factor
Unknown
Orbital elements
Apogee altitude
29,391.838 km
Perigee altitude
585.446 km
Semi-major axis
21,366.779 km
Eccentricity
0.67409
Inclination
26.6018°
RAAN
11.6221°
Arg. of periapsis
48.3931°
True anomaly
6.53252°
Mean anomaly
0.941°
Eccentric anomaly
2.88481°
Mean motion
0.69492 °/min
Orbital period
518.05 mins
BSTAR
0.00066115
Loading maneuver chart data...
Computing Atmospheric mass density...

Documentation

Showing up to 5 results
|